Location: Bowman Observatory
(41.0326°N, 73.6210°W)
Time: 20:16:35
(UTC-04:00)

Cosmos 2298 Rocket - Visible Passes

Search period start: 24 September 2016 00:00
Search period end: 04 October 2016 00:00
Orbit: 776 x 784 km, 74.0° (Epoch: 23 September)

Date Brightness Start Highest point End Pass type
(mag) Time Alt. Az. Time Alt. Az. Time Alt. Az.
24 Sep 6.8 04:24:48 10° SE 04:27:41 15° E 04:30:34 10° ENE visible
24 Sep 4.1 06:04:07 10° SSW 06:09:21 65° WNW 06:14:40 10° NNE visible
25 Sep 4.1 05:30:39 10° SSW 05:35:55 80° ESE 05:41:16 10° NNE visible
26 Sep 4.9 04:57:29 10° S 05:02:35 50° ESE 05:07:42 10° NNE visible
27 Sep 5.7 04:24:43 10° SSE 04:29:17 31° E 04:33:56 10° NE visible
27 Sep 4.8 06:06:48 10° SW 06:11:32 32° WNW 06:16:18 10° N visible
28 Sep 6.3 03:53:07 13° SE 03:56:05 20° E 03:59:50 10° NE visible
28 Sep 4.2 05:33:43 15° SW 05:37:57 50° WNW 05:43:09 10° N visible
29 Sep 6.7 03:21:21 11° ESE 03:22:57 12° E 03:24:55 10° ENE visible
29 Sep 3.9 05:01:56 32° SSW 05:04:29 78° WNW 05:09:50 10° NNE visible
30 Sep 4.3 04:30:00 53° SSE 04:31:04 67° ESE 04:36:22 10° NNE visible
30 Sep 5.6 06:10:34 10° W 06:13:55 17° NW 06:17:23 10° NNW visible
01 Oct 5.1 03:57:57 41° E 03:57:57 41° E 04:02:44 10° NNE visible
01 Oct 5.1 05:38:30 22° W 05:40:13 25° WNW 05:44:37 10° N visible
02 Oct 6.1 03:25:48 24° ENE 03:25:48 24° ENE 03:28:51 10° NE visible
02 Oct 4.5 05:06:21 38° WNW 05:06:35 38° WNW 05:11:34 10° N visible
03 Oct 6.8 02:53:33 13° ENE 02:53:33 13° ENE 02:54:32 10° ENE visible
03 Oct 4.5 04:34:07 50° NNW 04:34:07 50° NNW 04:38:21 10° NNE visible
